Regional Weather Roundup
Issued by NWS

Home | Current Version | Previous Version | Text Only | Print | Product List | Glossary On
Versions: 1 2 3 4 5 6 7 8 9 10 11 12 13 14 15 16 17 18 19 20 21 22 23 24 25 26 27 28 29 30 31 32 33 34 35 36 37 38 39 40 41 42 43 44 45 46 47 48 49 50
528
ASUS43 KLSX 220007
RWRMO

WEATHER SUMMARY FOR MISSOURI
NATIONAL WEATHER SERVICE SPRINGFIELD MO
700 PM CDT MON AUG 21 2017

NOTE: "FAIR" INDICATES FEW OR NO CLOUDS BELOW 12,000 FEET WITH NO
       SIGNIFICANT WEATHER AND/OR OBSTRUCTIONS TO VISIBILITY.
       CURRENT SKY AND/OR WEATHER CONDITIONS ARE NOT AVAILABLE FOR
       CHILLICOTHE AND FARMINGTON.

MOZ001>031-035>038-043-044-053-054-220100-
...NORTHERN AND WESTERN MISSOURI...

CITY           SKY/WX    TMP DP  RH WIND       PRES   REMARKS
KANSAS CTY INT PTSUNNY   77  73  87 SE7       29.95F
6HR MIN TEMP:  72; 6HR MAX TEMP:  79; 6HR PCP:  1.32;

KANSAS C DTWN  MOSUNNY   81  75  82 SE5       29.94F
6HR MIN TEMP:  73; 6HR MAX TEMP:  82; 6HR PCP:  0.19;

LEE`S SUMMIT   SUNNY     80  75  84 SE9       29.97F
6HR MIN TEMP:  74; 6HR MAX TEMP:  80;

ST JOSEPH      LGT RAIN  77  73  87 SE5       29.95F
6HR MIN TEMP:  76; 6HR MAX TEMP:  84; 6HR PCP:  0.02;

CHILLICOTHE      N/A     72  71  97 S6        29.99F
6HR MIN TEMP:  72; 6HR MAX TEMP:  76; 6HR PCP:  0.08;

KIRKSVILLE     CLOUDY    74  50  43 S3        30.00F
6HR MIN TEMP:  71; 6HR MAX TEMP:  79; 6HR PCP:  0.20;


$$
MOZ066>068-077>081-088>096-101>105-220100-
...SOUTHWEST MISSOURI...

CITY           SKY/WX    TMP DP  RH WIND       PRES   REMARKS
SPRINGFIELD    SUNNY     85  75  72 S6        30.05S HX  93
6HR MIN TEMP:  81; 6HR MAX TEMP:  89;

JOPLIN         SUNNY     89  74  60 S14       30.02F HX  98
6HR MIN TEMP:  85; 6HR MAX TEMP:  92;

BRANSON        MOSUNNY   84  73  70 CALM      30.08S HX  91

$$
MOZ032>034-039>042-045>050-055>058-069>072-220100-
...CENTRAL MISSOURI...

CITY           SKY/WX    TMP DP  RH WIND       PRES   REMARKS
COLUMBIA       CLOUDY    85  75  72 W3        30.03R HX  93
6HR MIN TEMP:  83; 6HR MAX TEMP:  90;

JEFFERSON CITY CLOUDY    87  77  72 CALM      30.01R HX  99
6HR MIN TEMP:  86; 6HR MAX TEMP:  91;

ROLLA          PTCLDY    84  74  71 S5        30.06S HX  91
6HR MIN TEMP:  80; 6HR MAX TEMP:  90;

SEDALIA        CLOUDY    79  72  79 NE8       30.03R
6HR MIN TEMP:  79; 6HR MAX TEMP:  91;

WHITEMAN AFB   MOSUNNY   80  80 100 SE7       29.98F
WARRENSBURG    SUNNY     81  72  74 E10       29.98F
OSAGE BEACH    CLEAR     88  75  65 S3        30.04R HX  97

$$
MOZ051-052-059>065-220100-
...EAST CENTRAL MISSOURI...

CITY           SKY/WX    TMP DP  RH WIND       PRES   REMARKS
ST LOUIS INTL  MOCLDY    86  74  67 E9        30.02F HX  94
6HR MIN TEMP:  85; 6HR MAX TEMP:  92;

SPIRIT OF STL  PTCLDY    86  75  69 E3        30.00S HX  95
6HR MIN TEMP:  84; 6HR MAX TEMP:  94;

ST CHARLES     CLEAR     83  76  79 E3        30.00S HX  91
6HR MIN TEMP:  83; 6HR MAX TEMP:  89; 6HR PCP:  0.03;


$$
MOZ072>076-082>087-097>100-106>115-220100-
...SOUTH CENTRAL AND SOUTHEAST MISSOURI...

CITY           SKY/WX    TMP DP  RH WIND       PRES   REMARKS
CAPE GIRARDEAU CLEAR     86  76  71 SW6       30.04R HX  96
6HR MIN TEMP:  83; 6HR MAX TEMP:  92;

FARMINGTON     CLEAR     86  75  69 S6        30.06F HX  95
6HR MIN TEMP:  85; 6HR MAX TEMP:  91;

POPLAR BLUFF   CLEAR     87  76  69 S6        30.04S HX  97
6HR MIN TEMP:  84; 6HR MAX TEMP:  91;

WEST PLAINS    CLEAR     86  71  60 S8        30.09S HX  91
6HR MIN TEMP:  84; 6HR MAX TEMP:  89;


$$



USA.gov is the U.S. government's official web portal to all federal, state and local government web resources and services.